{"data":{"norad_id":63549,"intl_designator":"2025-075B","name":"STARLINK-11665 [DTC]","alt_names":[],"object_type":"PAYLOAD","status":"ACTIVE","operator":null,"country":"US","launch_date":"2025-04-13","launch_site_code":"AFETR","launch_vehicle":null,"mission":null,"orbit_class":"UNKNOWN","rcs_meters":null,"size_class":null,"mass_kg":null,"dimensions":null,"purposes":["comms"],"wikipedia_slug":null,"has_3d_model":false,"image_url":null,"decayed_at":null,"tle_current":{"epoch":"2026-09-19T21:36:37.145952Z","epoch_age_seconds":207361,"freshness":"STALE","line1":"1 63549U 25075B   26262.90042993  .00220316  00000+0  16710-2 0  9990","line2":"2 63549  42.9998  63.1031 0001508 284.1751  75.8949 15.70902056 83790","mean_motion":15.70902056,"eccentricity":0.0001508,"inclination_deg":42.9998,"raan_deg":63.1031,"arg_perigee_deg":284.1751,"mean_anomaly_deg":75.8949,"bstar":0.001671,"rev_number":8379,"period_min":91.667077173906,"perigee_km":355.30214397675,"apogee_km":357.33325551419,"semimajor_km":6734.4546997455,"source":"CELESTRAK","updated_at":"2026-09-21T09:00:35.019232Z"}}}